Location: Unspecified
(0.0000°N, 0.0000°E)
Time: 10:46:58
(UTC+02:00)

ARIANE 5 R/B - Visible Passes

Search period start: 18 April 2015 00:00
Search period end: 28 April 2015 00:00
Orbit: 576 x 35643 km, 7.4° (Epoch: 16 April)

Date Brightness Start Highest point End Pass type
(mag) Time Alt. Az. Time Alt. Az. Time Alt. Az.
18 Apr 9.0 16:24:09 10° W 01:46:31 64° W 01:46:31 64° W visible
19 Apr 7.1 13:25:02 10° W 13:35:21 78° N 22:58:23 51° E visible
21 Apr 3.9 07:28:56 10° WSW 07:34:28 42° S 07:37:42 10° ESE visible
21 Apr 6.3 18:49:32 10° W 04:39:33 23° ESE 04:41:06 10° ESE visible
22 Apr 8.6 15:42:16 10° W 01:09:21 76° WSW 01:09:21 76° WSW visible
23 Apr 6.7 12:44:01 10° W 12:52:22 78° N 22:21:10 39° E visible
24 Apr 4.1 21:57:10 10° W 06:53:08 44° S 06:56:29 10° ESE visible
25 Apr 7.2 18:05:13 10° W 04:00:54 - ESE 03:20:13 30° W visible
26 Apr 8.3 15:00:38 10° W 00:29:19 84° S 00:32:01 83° SSE visible
27 Apr 6.4 12:03:03 10° W 12:09:55 77° N 21:43:48 27° E visible
